Погода в Амайгбо

Нигерия     5°42′19″N   7°03′55″E
темп.,
°C
ветер,
м/с
пор.,
м/с
влажн.,
%
обл.,
%
осадки,
мм/ч
давл.,
гПа
погр.,
м
11 апреля, вс
вс1101:00+25ююз2787100 8.6 1009436
04:00+25ююв4989100 0.0 1008510
07:00+24з2589100 0.3 1008216
10:00+27ю1173100 0.0 1011559
13:00+31ю235788 0.0 10091083
16:00+30ююз346064 0.0 1008984
19:00+27ю49696 0.0 1009494
22:00+25ююз388499 0.0 1011365
12 апреля, пн
пн1201:00+24ю259273 0.0 1010197
04:00+24ю2595100 0.0 1009193
07:00+24юз2693100 0.0 1010240
10:00+30юз346195 0.0 1012780
13:00+34ю344382 0.0 10101881
16:00+31юв355699 0.0 1008490
19:00+29ююв366390 0.0 1008169
22:00+27з2572100 0.1 1012191
13 апреля, вт
вт1301:00+25зюз2785100 0.1 1010356
04:00+25ююз2788100 0.0 1009330
07:00+25ю278984 0.0 1011283
10:00+31ю455886 0.0 10131026
13:00+35ю334357 0.0 10101990
16:00+36ю433847 0.0 10072254
19:00+30ю3858100 0.0 1008374
22:00+27ю4876100 0.9 1012454
14 апреля, ср
ср1401:00+25ю3787100 1.6 1011313
04:00+24юз2792100 0.0 1009280
07:00+25ю159157 0.0 1011267
10:00+31ю456170 0.0 10131330
13:00+33ю2349100 0.3 10111787
16:00+32зюз3354100 1.0 1009997
19:00+28ююз1270100 1.5 100932
22:00+26зсз2578100 0.1 1012172
15 апреля, чт
чт1501:00+24з3879100 0.4 1011289
04:00+24ю1380100 0.0 1009105
07:00+24ю268580 0.0 1010249
10:00+30ююз336058 0.0 1011923
13:00+35юз224376 0.0 10091764
16:00+36ююз213795 0.0 10062278
19:00+29зюз486378 0.8 1008275
22:00+26юз398269 0.6 1009405